Regional Weather Roundup
Issued by NWS

Home | Current Version | Previous Version | Graphics & Text | Print | Product List | Glossary On
Versions: 1 2 3 4 5 6 7 8 9 10 11 12 13 14 15 16 17 18 19 20 21 22 23 24 25 26 27
000
ASUS45 KBOU 251007
RWRCO

WEATHER ROUNDUP FOR COLORADO
NATIONAL WEATHER SERVICE DENVER/BOULDER CO
400 AM MDT SAT MAR 25 2017

NOTE: "FAIR" INDICATES FEW OR NO CLOUDS BELOW 12000 FEET WITH NO
SIGNIFICANT WEATHER AND/OR OBSTRUCTIONS TO VISIBILITY.

COZ001>005-013-030-031-251100-
...NORTHWEST COLORADO...

CITY           SKY/WX    TMP DP  RH WIND       PRES   REMARKS
CRAIG          FAIR      26  21  81 CALM      30.13F
HAYDEN         FAIR      34  21  60 E10       30.14F WCI  26
MEEKER         FAIR      26  22  84 E3        30.13F
MOUNT WERNER   NOT AVBL
STEAMBOAT SPGS FAIR      29  24  81 CALM      30.16S
WALDEN         NOT AVBL
$$

COZ006>008-011-251100-
...WEST CENTRAL VALLEYS...

CITY           SKY/WX    TMP DP  RH WIND       PRES   REMARKS
GRAND JUNCTION FAIR      43  29  57 E15       30.10F
MONTROSE       FAIR      36  27  69 SE8       30.16F
EAGLE          FAIR      29  24  82 CALM      30.21F
RIFLE          FAIR      32  25  75 SE3       30.15F
DELTA          FAIR      38  26  64 E8        30.16S
NUCLA          FAIR      37  28  70 E9        30.17F
$$

COZ017>023-064>068-251100-
...SOUTHWEST COLORADO...

CITY           SKY/WX    TMP DP  RH WIND       PRES   REMARKS
DURANGO        FAIR      28  21  75 NE5       30.17F WCI  23
CORTEZ         FAIR      29  26  89 CALM      30.15F
PAGOSA SPRINGS FAIR      31  30  97 CALM      30.21S
TELLURIDE      NOT AVBL
WOLF CREEK PAS FAIR      28  12  50 SW13      30.34F WCI  18
$$

COZ009-010-012-014-032>034-037-058>063-251100-
...CENTRAL COLORADO...

CITY           SKY/WX    TMP DP  RH WIND       PRES   REMARKS
ASPEN          FAIR      33  22  63 SE8       30.18F WCI  26
BUENA VISTA    FAIR      24  18  76 SW3       30.18F
COPPER MTN     FAIR      27  10  50 MISG      30.27F
BERTHOUD PASS  FAIR      18   7  62 NW20      30.25S WCI   1
COTTONWOOD PAS FAIR      36  12  38 W9        30.20F
GUNNISON       FAIR      26  22  84 CALM      30.25S
KREMMLING      FAIR      27  21  80 CALM      30.22S
LEADVILLE      FAIR      18  13  80 N7        30.22F WCI   9
MONARCH PASS   FAIR      23  16  74 W30       30.36F WCI   5
SALIDA         FAIR      35  24  62 NW13      30.23F WCI  27
SUNLIGHT       FAIR      25  19  80 S9G16     30.28F WCI  15
WILKERSON PASS FAIR      28  12  50 W10G17    30.24F WCI  19
$$

COZ069>075-251100-
...SAN LUIS VALLEY/SANGRE DE CRISTO MOUNTAINS...

CITY           SKY/WX    TMP DP  RH WIND       PRES   REMARKS
ALAMOSA        FAIR      24  22  91 SW5       30.19F WCI  18
LA VETA PASS   NOT AVBL
SAGUACHE       FAIR      32  23  69 N8        30.21S WCI  25
$$

COZ035-036-038>040-251100-
...NORTHERN COLORADO FRONT RANGE...

CITY           SKY/WX    TMP DP  RH WIND       PRES   REMARKS
DENVER INTL AP FAIR      33  27  78 S8        30.05F WCI  26
DMNS CITY PARK   N/A     35  29  79 S3        30.06S
AURORA         PTCLDY    34  29  82 S10       30.06F WCI  26
FRONT RANGE AP FAIR      32  30  93 S6        30.07F WCI  26
ERIE MUNI ARPT FAIR      28  27  95 S5        30.06F WCI  23
BOULDER MUN AP FAIR      36  30  80 CALM      30.06S
CENTENNIAL     FAIR      30  26  85 SE7       30.06F WCI  23
BROOMFIELD     FAIR      32  28  86 W6        30.06F WCI  26
FORT COLLINS   NOT AVBL
LONGMONT       FAIR      32  27  81 SW3       30.08S
$$

COZ041-046-047-076>085-087-088-251100-
...PIKES PEAK/PALMER DIVIDE AND SOUTHERN FOOTHILLS...

CITY           SKY/WX    TMP DP  RH WIND       PRES   REMARKS
COLO. SPRINGS  FAIR      30  24  78 N7        30.09F WCI  23
A. F. ACADEMY  FAIR      25  25  97 N7        30.09F WCI  18
SCHRIEVER AFB  FAIR      34  27  76 NW8       30.10F WCI  27
ELLICOTT         N/A    N/A N/A N/A CALM      30.09S
FALCON         FAIR      29  27  91 NW5       30.10F WCI  24
FORT CARSON    FAIR      29  25  84 NW7       30.08F WCI  22
LIMON          FAIR      28  26  92 N6        30.08F WCI  22
MONUMENT HILL  FAIR      27  23  86 S8        30.10F WCI  18
TRINIDAD       FAIR      33  27  78 SW14      30.11F WCI  23
$$

COZ042>045-048>051-090-091-251100-
...NORTHEAST COLORADO...

CITY           SKY/WX    TMP DP  RH WIND       PRES   REMARKS
GREELEY ARPT   FAIR      26  22  84 CALM      30.07F
AKRON          FAIR      35  30  82 W5        30.07S WCI  31
BURLINGTON     FAIR      32  30  92 NW12      30.06F WCI  23
WRAY           NOT AVBL
STERLING       FOG       30  30 100 S3        30.07S VSB 1
HOLYOKE        FAIR      34  32  93 W8        30.08S WCI  27
FORT MORGAN    FAIR      30  28  92 W5        30.07F WCI  25
$$

COZ086-089-092>099-251100-
...SOUTHEAST COLORADO...

CITY           SKY/WX    TMP DP  RH WIND       PRES   REMARKS
PUEBLO         FAIR      29  26  89 CALM      30.09F
LA JUNTA       FAIR      34  31  88 W7        30.10R WCI  28
LAMAR          FAIR      26  24  92 SW5       30.08R WCI  20
SPRINGFIELD      N/A     26  26 100 W8        30.08R WCI  18
$$




USA.gov is the U.S. government's official web portal to all federal, state and local government web resources and services.